Location: Ballingbuur
(53.0000°N, 5.7667°E)
Time: 06:04:17
(UTC+00:00)

USA 306 - Pass Details

Date: 29 November 2020
Orbit: 565 x 579 km, 54.0° (Epoch: 22 January)

Event Time Altitude Azimuth Distance (km) Brightness Sun altitude
Exits shadow 04:13:02 45° 73° (ENE) 793 3.9 -27.8°
Drops below altitude 10° 04:16:07 10° 82° (E) 1,897 6.5 -27.4°
Sets 04:18:23 0° 84° (E) 2,797 7.7 -27.0°
